| time (UTC) | temp F | wind direction | speed knots | gust knots | rain 1hr in | rain 24hr in | rain mn in | humidity % | barometer mb |
| 20260902024516 | 53 | 273 | 0.0 | 0.0 | 0.00 | 0.00 | 0.00 | 90 | 1021.1 |
| 20260902023008 | 53 | 273 | 0.0 | 0.0 | 0.00 | 0.00 | 0.00 | 90 | 1021.3 |
| 20260902021607 | 53 | 273 | 0.0 | 0.0 | 0.00 | 0.00 | 0.00 | 90 | 1021.3 |
| 20260902020024 | 53 | 273 | 0.0 | 0.0 | 0.00 | 0.00 | 0.00 | 90 | 1021.2 |
| 20260902014600 | 53 | 273 | 0.0 | 0.0 | 0.00 | 0.00 | 0.00 | 90 | 1021.3 |
| 20260902014501 | 53 | 273 | 0.0 | 0.0 | 0.00 | 0.00 | 0.00 | 90 | 1021.3 |
| 20260902013033 | 53 | 273 | 0.0 | 0.0 | 0.00 | 0.00 | 0.00 | 90 | 1021.2 |
| 20260902011535 | 53 | 273 | 0.0 | 0.0 | 0.00 | 0.00 | 0.00 | 90 | 1021.2 |
| 20260902004551 | 53 | 273 | 0.0 | 0.0 | 0.00 | 0.00 | 0.00 | 90 | 1021.3 |
| 20260902003017 | 53 | 273 | 0.0 | 0.0 | 0.00 | 0.00 | 0.00 | 90 | 1021.3 |
| 20260902001547 | 53 | 273 | 0.0 | 0.0 | 0.00 | 0.00 | 0.00 | 89 | 1021.3 |
| 20260902000041 | 53 | 273 | 0.0 | 0.0 | 0.00 | 0.00 | 0.00 | 89 | 1021.3 |
| 20260901234546 | 53 | 273 | 0.0 | 0.0 | 0.00 | 0.00 | 0.00 | 88 | 1021.4 |
| 20260901233008 | 53 | 273 | 0.0 | 0.0 | 0.00 | 0.00 | 0.00 | 88 | 1021.3 |
| 20260901231511 | 54 | 273 | 0.0 | 0.0 | 0.00 | 0.00 | 0.00 | 87 | 1021.4 |
| 20260901230036 | 54 | 273 | 0.0 | 1.7 | 0.00 | 0.00 | 0.00 | 87 | 1021.4 |
| 20260901224549 | 55 | 273 | 0.0 | 0.0 | 0.00 | 0.00 | 0.00 | 86 | 1021.5 |
| 20260901223007 | 55 | 273 | 0.0 | 0.9 | 0.00 | 0.00 | 0.00 | 86 | 1021.6 |
| 20260901221536 | 55 | 273 | 0.0 | 0.0 | 0.00 | 0.00 | 0.00 | 86 | 1021.5 |
| 20260901220056 | 56 | 273 | 0.0 | 1.7 | 0.00 | 0.00 | 0.00 | 85 | 1021.5 |
| 20260901214526 | 56 | 273 | 0.0 | 0.0 | 0.00 | 0.00 | 0.00 | 85 | 1021.7 |
| 20260901213101 | 57 | 273 | 0.0 | 0.0 | 0.00 | 0.00 | 0.00 | 84 | 1021.7 |
| 20260901211547 | 57 | 273 | 0.0 | 0.0 | 0.00 | 0.00 | 0.00 | 83 | 1021.7 |
| 20260901210006 | 57 | 273 | 0.0 | 0.9 | 0.00 | 0.00 | 0.00 | 82 | 1021.7 |
| 20260901204546 | 58 | 273 | 0.0 | 0.0 | 0.00 | 0.00 | 0.00 | 82 | 1021.9 |
| 20260901203023 | 59 | 273 | 0.0 | 0.0 | 0.00 | 0.00 | 0.00 | 81 | 1021.7 |
| 20260901201542 | 59 | 273 | 0.0 | 0.9 | 0.00 | 0.00 | 0.00 | 80 | 1021.6 |
| 20260901200037 | 59 | 273 | 0.0 | 1.7 | 0.00 | 0.00 | 0.00 | 80 | 1021.6 |
| 20260901194501 | 60 | 273 | 0.0 | 1.7 | 0.00 | 0.00 | 0.00 | 79 | 1021.6 |
| 20260901193038 | 60 | 273 | 0.0 | 0.0 | 0.00 | 0.00 | 0.00 | 77 | 1021.4 |
| 20260901191514 | 61 | 273 | 0.0 | 0.0 | 0.00 | 0.00 | 0.00 | 76 | 1021.2 |
| 20260901190101 | 62 | 273 | 0.0 | 0.0 | 0.00 | 0.00 | 0.00 | 75 | 1021.0 |
| 20260901184521 | 63 | 273 | 0.0 | 1.7 | 0.00 | 0.00 | 0.00 | 73 | 1021.1 |
| 20260901183102 | 65 | 273 | 0.0 | 1.7 | 0.00 | 0.00 | 0.00 | 68 | 1021.0 |
| 20260901181538 | 66 | 273 | 0.0 | 0.9 | 0.00 | 0.00 | 0.00 | 65 | 1020.9 |
| 20260901180008 | 67 | 273 | 0.0 | 1.7 | 0.00 | 0.00 | 0.00 | 64 | 1021.0 |
| 20260901174538 | 68 | 271 | 0.9 | 2.6 | 0.00 | 0.00 | 0.00 | 61 | 1021.0 |
| 20260901173014 | 68 | 269 | 1.7 | 7.0 | 0.00 | 0.00 | 0.00 | 60 | 1020.9 |
| 20260901171548 | 67 | 264 | 1.7 | 3.5 | 0.00 | 0.00 | 0.00 | 62 | 1021.0 |
| 20260901170026 | 68 | 277 | 1.7 | 5.2 | 0.00 | 0.00 | 0.00 | 60 | 1021.0 |
| 20260901164636 | 70 | 247 | 2.6 | 7.8 | 0.00 | 0.00 | 0.00 | 56 | 1021.0 |
| 20260901163056 | 70 | 221 | 3.5 | 7.0 | 0.00 | 0.00 | 0.00 | 54 | 1020.8 |
| 20260901161546 | 70 | 226 | 3.5 | 7.0 | 0.00 | 0.00 | 0.00 | 56 | 1020.8 |
| 20260901160049 | 69 | 238 | 3.5 | 8.7 | 0.00 | 0.00 | 0.00 | 57 | 1020.9 |
| 20260901154540 | 69 | 278 | 2.6 | 7.0 | 0.00 | 0.00 | 0.00 | 57 | 1020.9 |
| 20260901153031 | 70 | 225 | 1.7 | 7.8 | 0.00 | 0.00 | 0.00 | 56 | 1020.8 |
| 20260901151510 | 70 | 219 | 3.5 | 7.8 | 0.00 | 0.00 | 0.00 | 56 | 1020.9 |
| 20260901150046 | 69 | 243 | 2.6 | 9.6 | 0.00 | 0.00 | 0.00 | 58 | 1021.0 |
| 20260901144533 | 69 | 262 | 1.7 | 8.7 | 0.00 | 0.00 | 0.00 | 58 | 1020.9 |
| 20260901143054 | 70 | 250 | 3.5 | 9.6 | 0.00 | 0.00 | 0.00 | 57 | 1021.1 |
| 20260901141531 | 69 | 209 | 3.5 | 7.0 | 0.00 | 0.00 | 0.00 | 57 | 1021.0 |
| 20260901140058 | 69 | 234 | 4.3 | 10.4 | 0.00 | 0.00 | 0.00 | 58 | 1021.0 |
| 20260901134528 | 69 | 231 | 2.6 | 8.7 | 0.00 | 0.02 | 0.00 | 61 | 1021.1 |
| 20260901133011 | 70 | 248 | 3.5 | 7.8 | 0.00 | 0.02 | 0.00 | 58 | 1021.2 |
| 20260901131543 | 70 | 234 | 3.5 | 8.7 | 0.00 | 0.02 | 0.00 | 55 | 1021.3 |
| 20260901130015 | 70 | 250 | 2.6 | 13.0 | 0.00 | 0.02 | 0.00 | 59 | 1021.4 |
| 20260901124557 | 71 | 241 | 5.2 | 8.7 | 0.00 | 0.08 | 0.00 | 58 | 1021.4 |
| 20260901123033 | 70 | 235 | 3.5 | 9.6 | 0.00 | 0.08 | 0.00 | 59 | 1021.4 |
| 20260901121509 | 68 | 261 | 2.6 | 10.4 | 0.00 | 0.08 | 0.00 | 62 | 1021.4 |
| 20260901120042 | 69 | 220 | 5.2 | 8.7 | 0.00 | 0.08 | 0.00 | 63 | 1021.5 |
| 20260901114518 | 69 | 247 | 4.3 | 7.0 | 0.00 | 0.08 | 0.00 | 62 | 1021.4 |
| 20260901113046 | 68 | 210 | 3.5 | 9.6 | 0.00 | 0.08 | 0.00 | 66 | 1021.4 |
| 20260901111528 | 67 | 277 | 3.5 | 7.8 | 0.00 | 0.08 | 0.00 | 70 | 1021.4 |
| 20260901110033 | 66 | 260 | 4.3 | 11.3 | 0.00 | 0.08 | 0.00 | 71 | 1021.6 |
| 20260901104554 | 67 | 253 | 5.2 | 10.4 | 0.00 | 0.08 | 0.00 | 68 | 1021.6 |
| 20260901103056 | 67 | 205 | 4.3 | 8.7 | 0.00 | 0.08 | 0.00 | 71 | 1021.5 |
| 20260901101537 | 67 | 251 | 4.3 | 8.7 | 0.00 | 0.08 | 0.00 | 75 | 1021.5 |
| 20260901100022 | 65 | 211 | 3.5 | 8.7 | 0.00 | 0.08 | 0.00 | 79 | 1021.6 |
| 20260901094526 | 63 | 235 | 2.6 | 7.0 | 0.00 | 0.08 | 0.00 | 81 | 1021.7 |
| 20260901093009 | 64 | 278 | 4.3 | 9.6 | 0.00 | 0.08 | 0.00 | 80 | 1021.6 |
| 20260901091557 | 65 | 279 | 3.5 | 7.8 | 0.00 | 0.08 | 0.00 | 81 | 1021.5 |
| 20260901090039 | 63 | 265 | 3.5 | 8.7 | 0.00 | 0.08 | 0.00 | 84 | 1021.3 |
| 20260901084531 | 62 | 255 | 5.2 | 10.4 | 0.00 | 0.08 | 0.00 | 85 | 1021.4 |
| 20260901083028 | 62 | 217 | 3.5 | 7.8 | 0.00 | 0.08 | 0.00 | 85 | 1021.2 |
| 20260901081522 | 62 | 201 | 1.7 | 6.1 | 0.00 | 0.08 | 0.00 | 85 | 1021.2 |
| 20260901080006 | 62 | 197 | 0.9 | 4.3 | 0.00 | 0.08 | 0.00 | 87 | 1021.1 |
| 20260901074550 | 61 | 227 | 0.9 | 5.2 | 0.00 | 0.08 | 0.00 | 90 | 1020.9 |
| 20260901073025 | 60 | 238 | 1.7 | 6.1 | 0.00 | 0.08 | 0.00 | 90 | 1020.8 |
| 20260901071601 | 59 | 240 | 1.7 | 7.8 | 0.00 | 0.08 | 0.00 | 92 | 1020.7 |
| 20260901070033 | 58 | 144 | 1.7 | 5.2 | 0.00 | 0.08 | 0.00 | 92 | 1020.7 |
| 20260901064558 | 58 | 229 | 2.6 | 6.1 | 0.00 | 0.08 | 0.00 | 93 | 1020.7 |
| 20260901063050 | 58 | 236 | 1.7 | 5.2 | 0.00 | 0.08 | 0.00 | 93 | 1020.6 |
| 20260901061545 | 57 | 238 | 0.9 | 5.2 | 0.00 | 0.08 | 0.00 | 93 | 1020.5 |
| 20260901060026 | 57 | 239 | 1.7 | 4.3 | 0.00 | 0.08 | 0.00 | 93 | 1020.5 |
| 20260901054512 | 57 | 252 | 1.7 | 3.5 | 0.00 | 0.08 | 0.00 | 93 | 1020.3 |
| 20260901053012 | 57 | 216 | 1.7 | 3.5 | 0.00 | 0.08 | 0.00 | 92 | 1020.2 |
| 20260901051540 | 57 | 236 | 0.9 | 2.6 | 0.00 | 0.08 | 0.00 | 92 | 1020.1 |
| 20260901050013 | 57 | 250 | 0.9 | 3.5 | 0.00 | 0.08 | 0.00 | 92 | 1020.1 |
| 20260901044535 | 57 | 244 | 0.0 | 3.5 | 0.00 | 0.08 | 0.00 | 92 | 1020.0 |
| 20260901043007 | 57 | 205 | 0.0 | 2.6 | 0.00 | 0.08 | 0.00 | 92 | 1019.9 |
| 20260901041608 | 58 | 253 | 0.9 | 4.3 | 0.00 | 0.08 | 0.00 | 92 | 1019.7 |
| 20260901040029 | 58 | 205 | 0.9 | 7.0 | 0.00 | 0.08 | 0.00 | 92 | 1019.7 |
| 20260901034525 | 58 | 221 | 1.7 | 6.1 | 0.00 | 0.09 | 0.00 | 92 | 1019.6 |
| 20260901033042 | 58 | 222 | 1.7 | 4.3 | 0.00 | 0.09 | 0.00 | 92 | 1019.7 |
| 20260901031548 | 58 | 246 | 0.9 | 6.1 | 0.00 | 0.09 | 0.00 | 92 | 1019.7 |
| 20260901030036 | 58 | 215 | 1.7 | 4.3 | 0.00 | 0.09 | 0.00 | 92 | 1019.6 |